Location: Beetenbrück
(52.8113°N, 9.5946°E)
Time: 22:08:16
(UTC+00:00)

Cosmos 1954 Rocket - Pass Details

Date: 14 April 2026
Orbit: 748 x 776 km, 74.0° (Epoch: 12 May)

Event Time Altitude Azimuth Distance (km) Brightness Sun altitude
Rises 22:54:53 0° 335° (NNW) 3,257 8.4 -27.2°
Reaches altitude 10° 22:57:18 10° 338° (NNW) 2,322 7.4 -27.3°
Maximum altitude 23:02:33 66° 61° (ENE) 838 4.1 -27.4°
Enters shadow 23:02:38 66° 67° (ENE) 839 4.1 -27.4°
